GFSSW_sfc_rhum_213.txt.gz
RH
77 76 76 74 76 75 74 76 79 80 76 76 75 68 69 76 73 59 56 46 54 51 55 52 58 56 48 50 44 39 38 30 29 36 31 30 32 29 27 29 29 30 46 48 67
69 70 69 68 69 72 75 76 76 77 76 75 76 75 70 77 66 62 50 50 49 54 51 52 54 48 48 48 51 42 41 29 27 31 33 32 33 33 29 30 30 31 46 65 68
69 68 67 67 67 68 69 74 77 72 74 73 73 68 74 72 62 52 46 55 49 58 55 62 56 46 51 49 44 42 31 32 35 37 36 35 38 33 33 35 30 32 45 70 70
70 70 69 68 66 65 65 66 72 76 74 71 70 74 71 63 69 37 42 46 52 56 57 62 56 50 50 50 42 39 37 36 40 37 37 37 37 37 36 33 30 29 48 68 68
72 73 73 71 70 68 65 63 64 66 71 74 74 69 64 66 62 40 40 38 54 59 58 61 53 48 43 44 40 40 39 35 31 32 36 33 38 35 34 32 30 35 60 65 68
72 75 77 76 74 74 72 67 62 66 74 71 68 68 62 65 38 33 37 38 59 60 56 58 52 44 42 42 46 38 36 31 31 31 30 33 35 36 31 30 33 38 51 61 64
73 76 77 76 75 73 71 67 66 75 73 62 66 52 51 53 33 40 42 38 42 51 53 54 51 45 42 48 34 31 34 34 31 31 31 29 30 30 31 31 32 36 40 50 53
74 76 78 77 77 76 73 69 75 76 74 66 68 58 60 42 41 41 46 39 37 42 42 45 49 47 46 40 32 34 36 38 35 32 31 28 27 24 29 30 29 34 35 38 38
77 77 78 78 79 80 77 75 72 72 65 68 54 61 57 48 43 42 51 43 38 40 40 37 43 47 43 47 46 38 40 38 35 33 32 29 29 23 32 33 30 32 31 32 32
81 80 80 78 80 82 77 70 63 65 58 42 35 62 56 61 50 57 53 51 39 42 46 49 49 54 53 71 65 44 31 38 32 36 35 36 29 26 25 28 31 30 30 32 31
84 85 83 80 82 78 61 47 49 58 51 50 50 55 56 46 51 56 58 52 36 40 54 56 52 64 51 50 44 39 32 30 39 41 38 35 31 25 26 25 25 25 26 28 30
85 86 83 80 80 65 52 50 45 50 48 43 48 43 39 52 55 58 62 47 42 53 52 53 54 53 50 44 36 35 34 35 42 42 36 36 29 24 25 25 23 22 25 25 26
87 85 83 80 78 54 50 52 68 64 45 39 39 40 36 53 50 50 69 58 48 49 55 55 52 48 45 53 44 51 36 40 42 37 36 33 28 23 22 24 28 28 29 28 29
86 87 82 77 54 59 53 66 67 64 76 53 40 37 34 44 52 58 83 60 54 49 54 54 50 46 48 53 57 45 57 42 35 46 45 38 47 21 16 18 19 20 25 32 34
88 88 82 63 49 58 54 68 67 46 70 38 36 34 38 69 54 54 80 54 66 57 51 64 59 53 51 61 60 54 54 51 52 53 56 35 62 22 22 17 22 27 32 34 40
87 88 79 56 58 73 73 68 53 70 62 49 42 42 40 39 40 80 60 52 62 50 56 61 60 63 58 63 62 64 45 57 64 63 71 54 41 36 21 19 28 29 32 39 41
88 85 68 61 52 77 75 52 75 73 38 50 48 43 44 43 45 64 50 57 80 60 62 52 63 63 63 54 54 45 64 80 77 80 60 78 61 30 29 32 33 34 35 41 44
88 69 72 71 85 74 60 54 70 39 38 41 48 45 44 39 48 47 46 54 49 62 76 69 68 68 66 64 52 60 67 82 68 70 63 69 69 52 34 37 38 37 37 36 35
73 81 86 86 68 60 56 84 51 36 40 40 42 50 42 41 48 50 46 52 43 55 51 48 65 70 70 67 61 56 66 51 79 86 65 61 38 32 47 48 43 42 41 42 38
75 76 83 83 69 54 56 56 42 51 49 47 37 41 51 45 47 43 50 46 41 44 50 45 62 68 73 63 58 52 51 57 78 40 52 53 38 67 64 55 44 44 46 46 46
74 58 78 74 53 55 66 46 47 48 56 49 37 37 39 34 35 39 40 44 45 42 39 42 42 58 70 65 60 63 73 66 64 65 63 57 63 68 74 65 51 49 50 51 53
70 52 85 61 48 68 52 44 48 46 60 52 45 37 34 34 37 45 33 33 44 36 29 39 38 70 49 67 58 57 50 45 69 56 79 74 70 49 62 60 53 51 52 54 58
68 69 86 60 56 46 51 48 50 53 51 46 47 42 40 33 36 41 46 52 46 37 32 39 32 55 47 57 65 64 52 49 58 69 83 73 71 57 57 52 57 57 57 58 60
60 61 56 66 64 43 46 40 40 53 49 46 42 44 42 42 43 44 48 55 56 49 50 35 36 30 35 34 62 62 65 54 47 77 68 73 65 51 55 63 62 61 62 63 66
69 52 68 57 45 60 54 47 46 48 51 45 48 41 36 42 47 44 58 65 59 60 58 46 40 48 42 38 57 50 50 64 62 44 59 46 65 43 57 74 65 62 65 69 73
74 64 61 60 66 57 63 50 43 46 48 50 42 41 40 38 33 37 48 58 53 76 59 64 49 52 52 48 56 55 54 61 53 44 49 42 46 42 50 63 71 73 76 82 85
96 93 72 52 66 57 47 43 46 45 48 43 45 52 50 42 39 43 44 49 50 58 57 59 63 66 70 66 64 69 56 47 56 62 53 56 45 50 64 72 80 88 92 95 91

GFSSW_sfc_rhum_216.txt.gz
RH
71 73 70 69 70 72 74 74 78 77 76 75 75 69 66 71 72 40 43 36 36 52 56 34 34 36 35 33 33 26 19 20 18 18 15 23 33 22 21 24 33 29 29 38 52
68 66 66 67 67 68 70 74 74 77 75 75 74 74 67 70 42 41 37 47 50 52 43 33 33 34 30 31 34 25 24 20 13 13 16 22 26 24 22 22 26 24 31 49 67
68 68 66 65 66 65 65 68 73 75 73 72 72 67 67 54 42 34 43 49 54 50 46 39 38 33 32 32 30 26 22 17 18 21 23 22 25 23 23 26 20 22 25 47 64
70 70 69 67 66 66 64 63 66 72 75 74 68 67 68 41 46 26 39 49 57 45 46 40 41 37 30 32 26 26 20 18 28 30 27 26 24 25 24 21 21 19 21 42 57
71 72 73 73 69 69 66 62 61 62 69 72 72 66 49 42 37 27 38 33 36 44 42 38 42 33 30 24 28 27 21 25 23 24 26 25 26 24 25 20 21 23 34 40 45
73 73 76 75 74 72 69 66 63 63 71 73 71 70 42 51 27 24 26 27 26 38 38 37 37 30 26 25 25 20 26 23 22 22 21 24 23 25 22 20 22 24 25 33 40
75 76 78 76 74 74 71 67 67 73 73 62 63 44 44 42 23 26 31 27 33 35 35 33 34 35 29 35 25 25 25 24 22 21 21 19 23 24 20 21 20 21 21 29 38
78 78 77 77 77 76 72 69 73 75 73 64 61 47 50 33 26 30 30 27 28 40 32 31 36 34 31 26 22 24 24 25 22 21 21 20 17 15 17 20 20 20 18 24 31
80 81 80 79 77 76 77 72 73 70 62 65 57 48 53 42 33 33 34 30 29 33 31 32 36 36 29 30 28 26 30 23 22 22 21 20 16 14 18 20 17 18 18 19 21
82 83 83 81 81 79 74 69 70 58 47 41 30 48 41 51 40 43 41 36 30 34 38 39 35 37 32 46 64 32 26 21 19 22 23 21 17 13 15 16 16 14 15 15 17
83 85 84 81 81 80 53 36 35 39 39 35 35 46 45 34 38 43 48 39 30 34 43 38 42 50 36 29 29 24 24 20 20 28 22 19 18 14 13 15 14 15 14 12 13
83 86 84 82 78 70 44 32 31 38 38 33 36 35 32 39 46 43 54 40 36 41 38 41 46 33 34 31 26 24 20 19 27 28 24 20 19 14 14 15 13 13 14 14 13
82 86 85 82 80 48 36 33 47 39 33 30 30 30 33 43 44 42 64 41 32 37 38 48 38 36 33 32 29 29 22 23 26 27 22 21 16 15 14 14 15 16 18 20 20
80 85 86 78 53 41 37 44 50 42 50 38 30 28 30 40 43 59 72 51 35 36 35 38 38 33 35 34 35 35 37 28 29 32 34 23 32 17 12 12 12 15 19 20 22
83 86 85 62 39 40 48 50 49 41 76 29 28 24 28 67 54 46 54 45 41 38 38 50 42 36 36 44 43 42 34 30 34 33 40 22 48 17 13 13 16 18 21 23 26
83 87 82 49 43 50 54 50 46 60 62 52 29 30 28 30 49 58 39 38 38 34 37 47 46 46 45 47 45 43 35 36 42 40 94 30 29 24 15 14 17 17 18 25 28
83 86 59 45 34 57 52 37 82 60 25 48 34 32 30 32 43 49 37 45 58 62 49 39 50 49 47 42 38 33 60 100 100 100 43 61 43 20 19 22 23 25 23 22 26
88 76 65 55 57 54 41 29 61 30 27 29 33 31 29 27 35 34 36 53 43 44 45 55 69 53 51 47 44 46 72 100 100 65 47 54 82 36 30 30 26 24 24 23 23
69 55 60 60 54 47 30 81 31 26 26 32 34 47 29 28 34 38 33 37 36 42 46 41 54 54 52 51 53 50 83 37 85 63 51 44 27 20 32 29 26 28 27 28 28
51 51 56 63 51 42 34 54 26 33 34 32 32 30 47 32 46 36 41 30 30 32 30 30 66 52 55 49 42 41 34 63 73 95 80 34 22 77 53 35 30 30 31 31 34
57 44 67 58 43 38 63 31 31 34 36 33 26 24 26 29 27 29 33 33 30 32 27 31 33 52 55 50 46 44 54 45 45 44 66 40 55 64 99 47 35 35 38 40 42
60 57 70 51 41 41 38 29 47 40 46 38 31 23 23 24 27 31 31 29 30 25 23 20 24 44 33 44 42 40 32 23 65 64 56 49 88 32 46 41 38 38 42 44 47
54 50 63 52 62 38 33 36 39 38 40 41 35 28 24 22 25 24 27 37 35 26 22 24 20 35 37 43 46 42 35 31 33 41 77 78 96 39 44 42 41 42 44 47 50
50 60 49 48 45 30 32 31 35 44 37 34 31 31 29 29 26 30 34 42 42 33 47 27 20 20 21 27 38 43 44 33 26 62 49 79 90 40 48 49 45 47 49 54 57
46 46 51 54 36 35 36 34 34 37 42 37 34 34 27 30 29 31 37 46 43 53 40 32 26 27 25 24 35 31 36 39 53 34 68 50 65 29 47 76 51 47 53 58 62
55 53 50 40 49 42 48 38 38 34 36 40 37 28 30 28 25 27 35 38 33 51 40 42 34 33 31 33 33 36 31 34 34 28 28 24 27 21 30 41 51 54 59 66 74
76 74 58 52 46 41 37 36 38 36 40 31 36 34 34 28 26 28 30 31 32 36 36 38 38 37 61 45 47 43 34 33 30 33 29 33 26 35 48 50 58 68 77 83 82

GFSSW_sfc_rhum_219.txt.gz
RH
68 67 67 68 68 69 72 75 74 74 76 75 75 73 67 70 72 42 41 37 36 52 54 32 27 28 29 30 28 24 25 24 20 18 15 20 26 23 21 22 26 26 25 34 44
69 68 67 67 67 67 68 70 74 76 74 74 75 74 71 68 40 38 39 39 45 48 37 32 28 27 32 30 29 30 32 26 16 14 14 17 24 24 24 24 25 23 30 42 57
70 70 69 68 67 66 64 64 69 74 72 70 71 70 66 52 41 31 48 45 52 49 37 33 29 29 33 27 29 28 31 23 15 12 16 16 23 22 24 23 19 21 24 46 57
72 72 72 71 69 67 66 62 62 67 73 73 70 68 68 36 48 26 40 45 54 42 38 37 33 36 33 33 26 32 24 22 17 23 20 20 18 22 22 19 18 17 16 34 50
74 73 74 74 72 70 66 63 60 61 64 68 69 69 47 40 34 25 39 27 39 42 44 38 36 33 31 24 26 28 23 18 19 25 22 23 23 20 22 17 18 18 22 29 37
76 76 77 77 75 74 71 66 62 62 64 64 65 65 44 45 23 21 22 23 21 39 40 34 34 29 28 22 26 25 22 19 20 20 20 22 19 24 18 16 19 19 22 25 30
77 78 78 78 76 76 74 69 67 70 68 60 61 40 42 38 24 21 26 24 22 24 35 31 28 32 27 26 21 21 26 22 19 19 19 19 21 25 16 18 18 19 18 20 24
78 80 79 79 77 77 74 70 69 74 70 64 59 39 49 28 25 27 24 24 24 27 30 26 28 35 31 24 25 24 24 32 19 18 19 20 22 14 13 20 19 17 14 18 22
79 81 82 81 79 77 75 72 69 63 62 61 50 47 49 39 34 27 29 28 25 30 33 25 33 38 32 37 31 26 34 33 26 18 18 20 19 13 13 16 14 14 14 14 16
81 83 85 83 80 80 76 69 69 62 44 34 34 48 39 42 38 34 36 30 26 32 36 38 37 40 37 43 64 35 27 28 28 20 21 19 17 12 12 14 13 12 11 12 13
82 84 85 84 80 78 50 34 36 38 34 35 31 35 36 30 29 42 40 35 27 33 44 41 45 51 35 29 28 25 26 24 22 20 19 18 16 13 11 11 12 12 12 10 11
79 82 85 83 80 76 47 32 29 41 33 30 30 32 28 33 39 44 46 38 34 44 38 45 51 32 27 28 30 29 26 24 21 22 22 16 17 13 12 12 11 10 10 10 11
78 81 85 84 78 52 34 26 36 33 37 31 31 30 34 37 51 48 56 42 35 41 43 54 37 31 32 33 32 26 26 24 25 24 20 18 18 14 11 10 11 14 14 15 16
77 81 85 85 60 32 33 31 38 34 46 32 30 28 28 41 57 58 71 55 36 44 38 57 32 32 32 32 28 35 27 21 25 28 35 19 38 19 13 14 12 12 17 15 17
78 82 86 88 39 34 42 38 38 41 84 32 28 24 31 54 75 52 47 55 42 34 36 50 35 35 36 34 35 36 27 24 28 30 36 22 45 19 12 13 14 15 19 20 21
78 82 85 49 38 39 41 40 45 61 76 49 26 30 43 48 64 45 48 40 30 37 34 42 39 37 38 40 37 32 30 32 37 39 94 22 24 24 15 14 15 15 18 21 23
77 85 74 34 32 43 42 40 77 70 23 39 31 29 30 31 37 50 47 44 46 60 50 38 44 42 39 40 36 34 64 100 97 100 45 57 39 20 17 18 18 20 19 20 22
86 80 60 42 42 45 41 28 63 23 23 26 28 30 32 25 29 37 40 52 40 45 40 60 69 47 44 44 48 45 76 100 96 62 47 47 75 34 24 24 19 20 20 21 23
72 48 51 48 45 44 31 76 32 22 21 27 32 47 29 25 32 40 34 43 39 38 46 38 66 48 44 42 47 50 76 37 85 51 54 48 30 21 28 24 21 23 23 26 28
42 41 47 51 43 42 31 50 25 25 28 28 35 28 47 30 45 38 41 29 30 28 27 30 66 46 48 42 38 41 30 64 80 98 90 44 27 74 46 29 23 24 26 30 33
54 42 62 47 43 33 59 37 24 27 28 29 25 21 22 29 26 31 32 34 25 29 25 26 34 54 44 47 46 41 51 42 46 42 77 47 58 70 98 41 28 30 35 37 40
57 55 59 45 40 33 40 25 42 31 37 35 32 23 20 19 24 33 31 31 25 24 26 23 21 48 33 36 36 37 34 24 65 61 47 54 96 26 45 33 31 35 38 42 45
47 41 55 50 56 44 28 29 32 34 33 33 28 26 20 19 26 22 23 27 27 23 19 18 21 33 34 38 36 36 31 25 25 38 82 82 96 33 33 35 34 38 41 44 48
46 56 52 47 41 34 26 26 32 36 31 28 26 25 26 24 19 24 26 37 34 23 42 33 17 18 25 30 32 34 34 28 23 65 38 87 91 36 41 46 38 40 44 48 51
42 41 50 52 37 36 30 30 29 36 36 31 31 27 24 26 25 26 27 41 38 44 35 25 22 18 17 19 26 25 34 32 44 36 73 76 66 29 46 65 43 41 47 51 53
52 50 42 42 34 37 41 30 32 26 34 34 37 24 24 24 21 23 31 34 31 42 36 31 30 28 26 26 27 32 27 28 26 24 23 21 23 17 19 30 40 43 48 54 62
62 58 59 45 36 36 29 31 32 31 29 26 32 27 28 25 19 22 21 24 27 35 34 35 32 32 55 37 36 33 27 26 26 25 23 26 19 21 30 36 43 47 51 62 66

GFSSW_sfc_rhum_222.txt.gz
RH
69 68 68 68 68 69 69 71 74 77 75 74 75 75 75 75 76 51 54 42 42 49 56 38 34 32 35 43 39 55 49 41 33 30 25 28 32 31 27 31 33 34 43 48 56
71 70 70 69 68 68 68 68 72 74 73 74 75 74 76 76 52 47 43 50 40 46 39 41 35 31 42 43 45 49 53 41 33 24 23 27 30 32 34 33 36 36 45 65 67
73 72 72 71 70 69 68 66 67 73 72 69 70 71 73 64 50 38 44 48 52 48 42 39 34 34 42 39 41 43 49 38 39 24 23 24 32 30 35 39 31 34 53 74 80
73 74 73 74 72 71 68 67 64 66 72 73 72 70 76 45 60 32 41 38 57 48 44 42 41 44 48 44 33 45 35 32 43 31 26 26 28 31 32 35 25 24 44 64 74
75 75 76 76 75 74 72 68 64 63 67 70 68 73 49 47 42 35 45 35 33 50 45 46 45 42 44 35 32 38 35 31 30 31 27 27 32 30 31 26 22 25 35 57 66
76 77 78 77 77 77 76 73 68 67 71 69 68 69 46 56 25 22 23 25 24 40 47 45 43 36 37 33 33 32 32 32 26 29 29 31 28 31 27 24 24 26 32 42 50
77 79 80 79 77 77 76 74 70 75 76 65 62 40 46 47 26 26 27 29 28 26 42 40 37 42 38 43 31 27 37 34 27 25 30 40 29 33 27 24 24 26 27 32 39
78 80 82 82 79 78 76 74 75 77 74 67 61 43 57 32 30 30 26 28 27 28 32 34 36 42 45 38 34 33 37 45 30 26 28 39 34 30 25 24 26 25 25 27 30
78 81 83 83 81 79 79 75 76 75 64 66 54 53 58 44 37 30 37 35 28 31 38 27 40 52 47 58 55 42 56 44 39 23 26 32 32 29 24 25 26 25 23 23 28
77 81 85 85 84 82 81 72 70 67 56 37 38 51 45 42 39 33 39 38 30 39 44 46 49 58 58 67 83 54 44 36 40 28 27 30 28 22 19 20 21 19 19 20 22
77 81 84 85 83 81 68 51 51 53 42 47 40 38 33 31 33 48 43 41 32 40 56 50 64 71 58 45 44 39 36 35 32 26 29 29 26 21 18 19 20 21 20 18 19
76 80 82 85 82 79 62 44 45 49 44 34 36 32 29 36 40 49 48 44 40 54 45 59 70 48 42 40 40 40 40 36 33 28 29 28 27 21 20 20 18 19 22 23 22
77 79 82 85 84 70 45 37 41 43 47 35 34 34 37 40 51 56 61 53 46 46 49 73 58 42 44 40 41 42 44 40 40 31 28 29 30 26 20 18 18 20 21 22 24
77 78 80 86 72 46 44 40 42 45 67 39 34 33 34 45 54 58 67 61 47 48 49 66 54 46 48 42 40 56 36 30 38 49 58 27 68 29 21 20 21 23 25 24 26
77 78 83 89 68 44 50 42 45 55 92 39 34 28 35 53 70 67 53 67 61 43 56 91 80 64 48 43 41 52 37 37 44 52 69 34 73 39 29 24 21 28 32 32 32
78 78 86 67 57 48 45 50 59 83 91 44 34 36 50 56 64 55 59 52 44 43 44 62 57 48 46 44 45 42 47 63 73 75 81 46 50 49 30 24 25 26 30 32 34
76 82 85 39 52 49 50 59 94 88 29 41 40 34 40 43 44 54 62 61 64 72 72 50 50 52 45 54 49 48 86 90 82 85 79 71 64 43 28 26 26 28 29 31 36
85 79 65 42 49 53 59 57 74 40 33 32 37 35 42 32 35 53 54 70 44 54 68 83 81 58 49 57 63 67 89 86 78 91 84 65 68 60 34 28 26 26 30 34 38
73 69 63 60 52 59 57 92 62 38 28 35 40 58 46 32 45 58 51 64 52 51 68 65 88 54 48 46 58 59 69 64 81 75 86 79 54 38 36 33 29 31 36 42 44
68 60 64 56 53 64 60 65 46 33 33 37 54 48 66 44 54 57 58 46 43 37 38 48 81 54 52 52 50 60 42 61 95 72 83 81 61 84 48 38 32 35 43 47 51
77 64 73 54 58 59 79 58 37 32 33 36 37 33 31 42 44 52 53 48 37 37 34 40 60 73 58 64 67 55 73 59 66 72 93 84 80 92 71 49 40 45 48 55 57
73 79 68 60 65 56 62 39 43 35 44 44 43 36 30 29 38 46 49 49 33 33 38 35 32 85 56 45 42 51 55 44 87 58 82 87 85 45 70 44 47 49 53 60 61
68 58 67 66 80 70 50 36 38 38 43 40 40 34 28 28 37 34 36 38 33 31 32 27 35 66 68 57 48 50 47 43 36 67 81 77 82 47 47 46 46 56 58 62 63
68 77 77 65 55 60 51 41 40 46 40 34 33 32 33 32 27 35 32 48 44 35 50 36 27 34 49 52 53 51 46 43 42 82 81 84 92 55 56 56 50 57 63 66 66
67 64 66 78 61 57 50 45 43 44 46 38 40 35 33 36 31 31 34 53 48 52 47 36 35 26 25 30 37 37 45 45 50 55 60 66 66 49 62 68 58 59 62 62 62
77 77 64 59 45 45 51 46 43 38 42 44 47 36 33 34 30 33 34 48 47 60 50 42 48 41 38 32 32 41 39 40 37 35 37 41 38 30 42 56 53 54 59 61 66
81 71 77 67 52 46 45 41 43 43 40 34 40 41 38 32 27 34 33 32 41 52 50 52 51 49 75 46 50 55 44 37 39 34 30 37 33 34 46 53 54 59 58 69 73